TimePDT,TemperatureF,Dew PointF,Humidity,Sea Level PressureIn,VisibilityMPH,Wind Direction,Wind SpeedMPH,Gust SpeedMPH,PrecipitationIn,Events,Conditions,WindDirDegrees,DateUTC
12:56 AM,79.0,55.9,45,29.89,10.0,Calm,Calm,-,N/A,,Clear,0,2013-06-27 07:56:00
1:56 AM,77.0,60.1,56,29.89,10.0,East,4.6,-,N/A,,Clear,100,2013-06-27 08:56:00
2:56 AM,78.1,62.1,58,29.90,10.0,Calm,Calm,-,N/A,,Clear,0,2013-06-27 09:56:00
3:56 AM,75.9,57.9,54,29.91,10.0,Calm,Calm,-,N/A,,Clear,0,2013-06-27 10:56:00
4:56 AM,73.9,57.0,55,29.92,7.0,NNE,8.1,-,N/A,,Clear,30,2013-06-27 11:56:00
5:56 AM,73.0,55.9,55,29.94,6.0,ENE,5.8,-,N/A,,Haze,70,2013-06-27 12:56:00
6:56 AM,78.1,57.0,48,29.96,7.0,ESE,4.6,-,N/A,,Clear,120,2013-06-27 13:56:00
7:56 AM,84.0,55.9,38,29.98,9.0,Calm,Calm,-,N/A,,Clear,0,2013-06-27 14:56:00
8:56 AM,88.0,59.0,37,29.99,10.0,ESE,3.5,-,N/A,,Partly Cloudy,120,2013-06-27 15:56:00
9:56 AM,91.0,66.0,44,29.99,10.0,ESE,5.8,-,N/A,,Partly Cloudy,110,2013-06-27 16:56:00
10:56 AM,93.9,66.0,40,29.98,10.0,East,4.6,-,N/A,,Partly Cloudy,90,2013-06-27 17:56:00
11:56 AM,98.1,64.0,33,29.97,10.0,Calm,Calm,-,N/A,,Partly Cloudy,0,2013-06-27 18:56:00
12:56 PM,102.0,61.0,26,29.95,10.0,East,5.8,-,N/A,,Partly Cloudy,100,2013-06-27 19:56:00
1:56 PM,104.0,60.1,24,29.93,10.0,Variable,3.5,-,N/A,,Partly Cloudy,0,2013-06-27 20:56:00
2:56 PM,105.1,57.0,20,29.90,10.0,SE,3.5,-,N/A,,Scattered Clouds,130,2013-06-27 21:56:00
3:56 PM,106.0,52.0,17,29.88,10.0,Calm,Calm,-,N/A,,Scattered Clouds,0,2013-06-27 22:56:00
4:56 PM,107.1,54.0,17,29.85,10.0,South,5.8,-,N/A,,Scattered Clouds,180,2013-06-27 23:56:00
5:56 PM,108.0,55.0,17,29.84,10.0,ESE,5.8,-,N/A,,Partly Cloudy,110,2013-06-28 00:56:00
6:56 PM,107.1,55.9,19,29.83,10.0,Calm,Calm,-,N/A,,Partly Cloudy,0,2013-06-28 01:56:00
7:56 PM,102.0,55.9,22,29.83,10.0,Calm,Calm,-,N/A,,Partly Cloudy,0,2013-06-28 02:56:00
8:56 PM,99.0,50.0,19,29.85,10.0,SW,8.1,-,N/A,,Partly Cloudy,230,2013-06-28 03:56:00
9:56 PM,95.0,46.9,19,29.86,10.0,WSW,11.5,-,N/A,,Partly Cloudy,240,2013-06-28 04:56:00
10:56 PM,93.9,46.9,20,29.87,10.0,WSW,10.4,-,N/A,,Partly Cloudy,250,2013-06-28 05:56:00
11:56 PM,91.9,46.9,21,29.87,10.0,WSW,9.2,-,N/A,,Clear,250,2013-06-28 06:56:00